Location: Stony Creek
(40.9500°S, 175.8500°E)
Time: 10:13:56
(UTC+00:00)

Cosmos 2285 Rocket - Pass Details

Date: 15 May 2026
Orbit: 970 x 998 km, 74.0° (Epoch: 10 June)

Event Time Altitude Azimuth Distance (km) Brightness Sun altitude
Exits shadow 17:38:56 18° 305° (NW) 2,246 5.5 -18.6°
Maximum altitude 17:43:21 41° 243° (WSW) 1,427 4.4 -17.8°
Drops below altitude 10° 17:49:27 10° 174° (S) 2,798 6.4 -16.7°
Sets 17:52:13 0° 166° (SSE) 3,754 7.1 -16.1°
